Location: Biltmore Gardens
(41.6070°N, 83.4666°W)
Time: 14:11:34
(UTC+00:00)

COSMOS 2455 - Pass Details

Date: 14 July 2020
Orbit: 898 x 911 km, 67.1° (Epoch: 12 August)

Event Time Altitude Azimuth Distance (km) Brightness Sun altitude
Rises 03:22:09 0° 334° (NNW) 3,550 7.5 -19.2°
Reaches altitude 10° 03:24:47 10° 341° (NNW) 2,606 6.4 -19.5°
Maximum altitude 03:30:36 46° 54° (NE) 1,206 3.5 -20.1°
Enters shadow 03:33:18 29° 109° (ESE) 1,619 3.7 -20.3°
